Flag for U.S.A. Weather past 2 weeks in Downey, California, U.S.A.

Now
83 °F

Sunny.


Feels Like: 82 °F
Forecast: 65 / 89 °F
Wind: 9 mph from South

Location: Long Beach Airport

Current Time: Aug 29, 2014 at 3:29:47 PM

Latest Report: Aug 29, 2014 at 2:53 PM


Visibility: 10 mi

Pressure: 29.82 "Hg

Humidity: 36%

Dew point: 53 °F

Location of DowneyLocation

Historic Weather in Downey — Graph

°F

Downey temperature yesterday

Maximum temperature yesterday: 93 °F (at 12:53 PM)
Minimum temperature yesterday: 70 °F (at 6:53 AM)
Average temperature yesterday: 79 °F

Past Weeks' High & Low Weather Summary

 TemperatureHumidityPressure
High93 °F (Aug 27, 2:53 PM)91% (Aug 15, 2:53 AM)30.03 "Hg (Aug 15, 2:53 AM)
Low64 °F (Aug 15, 4:53 AM)18% (Aug 28, 5:53 PM)29.78 "Hg (Aug 18, 4:53 PM)
Average74 °F65%29.92 "Hg
* Reported Aug 14 1:53 PM — Aug 29 1:53 PM, Downey, Weather by CustomWeather, © 2014

Note: Actual official high and low records may vary slightly from our data, if they occured in-between our weather recording intervals... More about our weather records

Advertising

Downey weather history for previous 24 hours

 ConditionsComfort  
Time TempWeatherWind HumidityBarometerVisibility
1:53 PM
Aug 29
82 °FSunny.7 mph41%29.84 "Hg10 mi
11:53 AM81 °FSunny.8 mph47%29.87 "Hg10 mi
10:53 AM79 °FSunny.5 mph56%29.88 "Hg10 mi
9:53 AM76 °FSunny.No wind64%29.88 "Hg10 mi
8:53 AM74 °FSunny.No wind67%29.88 "Hg10 mi
7:53 AM71 °FSunny.No wind76%29.88 "Hg9 mi
6:53 AM68 °FClear.No wind82%29.88 "Hg9 mi
5:53 AM68 °FClear.3 mph78%29.87 "Hg10 mi
4:53 AM68 °FClear.No wind78%29.86 "Hg10 mi
3:53 AM67 °FClear.No wind79%29.85 "Hg10 mi
2:53 AM69 °FClear.No wind70%29.87 "Hg10 mi
1:53 AM68 °FClear.No wind76%29.88 "Hg10 mi
12:53 AM71 °FClear.No wind68%29.88 "Hg10 mi
11:53 PM
Aug 28
71 °FClear.3 mph68%29.89 "Hg10 mi
10:53 PM73 °FClear.No wind55%29.90 "Hg10 mi
9:53 PM74 °FClear.5 mph53%29.90 "Hg10 mi
8:53 PM76 °FClear.6 mph42%29.89 "Hg10 mi
7:53 PM78 °FSunny.7 mph36%29.88 "Hg10 mi
6:53 PM83 °FSunny.12 mph22%29.86 "Hg10 mi
5:53 PM86 °FSunny.13 mph18%29.86 "Hg10 mi
4:53 PM88 °FSunny.15 mph24%29.87 "Hg10 mi
3:53 PM89 °FSunny.16 mph22%29.89 "Hg10 mi
Weather by CustomWeather, © 2014

See weather overviewHow to use our weather pages